FW4092 Weather Reports


time (UTC)temp
F
wind
direction
speed
knots
gust
knots
rain 1hr
in
rain 24hr
in
rain mn
in
humidity
%
barometer
mb
20260505224042 82 337 4.3 10.4 0.00 0.00 0.00 29 1009.3
20260505223807 82 17 3.5 10.4 0.00 0.00 0.00 29 1009.2
20260505223029 82 28 2.6 8.7 0.00 0.00 0.00 29 1009.3
20260505222522 82 27 2.6 7.0 0.00 0.00 0.00 30 1009.3
20260505222250 81 54 3.5 13.0 0.00 0.00 0.00 30 1009.3
20260505221511 82 24 3.5 13.0 0.00 0.00 0.00 29 1009.3
20260505221005 82 61 2.6 8.7 0.00 0.00 0.00 30 1009.4
20260505220504 81 25 3.5 8.7 0.00 0.00 0.00 30 1009.4
20260505220226 81 321 4.3 9.6 0.00 0.00 0.00 29 1009.4
20260505215504 82 313 3.5 9.6 0.00 0.00 0.00 30 1009.5
20260505215008 82 34 2.6 7.0 0.00 0.00 0.00 31 1009.4
20260505214505 81 42 2.6 8.7 0.00 0.00 0.00 30 1009.5
20260505214238 81 69 3.5 8.7 0.00 0.00 0.00 31 1009.6
20260505213504 81 20 3.5 8.7 0.00 0.00 0.00 31 1009.6
20260505213250 80 344 3.5 9.6 0.00 0.00 0.00 32 1009.6
20260505212504 80 11 4.3 12.2 0.00 0.00 0.00 30 1009.7
20260505212004 80 39 3.5 12.2 0.00 0.00 0.00 32 1009.7
20260505211523 80 350 2.6 9.6 0.00 0.00 0.00 33 1009.7
20260505211003 80 355 3.5 9.6 0.00 0.00 0.00 31 1009.8
20260505210500 80 31 3.5 9.6 0.00 0.00 0.00 31 1009.7
20260505210003 80 9 2.6 9.6 0.00 0.00 0.00 34 1009.8
20260505205500 79 36 3.5 11.3 0.00 0.00 0.00 33 1009.8
20260505205000 79 39 4.3 11.3 0.00 0.00 0.00 33 1009.9
20260505204459 79 349 3.5 9.6 0.00 0.00 0.00 35 1009.8
20260505204000 79 44 3.5 12.2 0.00 0.00 0.00 35 1009.9
20260505203500 78 35 3.5 12.2 0.00 0.00 0.00 35 1010.1
20260505203000 78 355 3.5 9.6 0.00 0.00 0.00 36 1010.1
20260505202747 78 61 3.5 9.6 0.00 0.00 0.00 36 1010.2
20260505202239 78 5 3.5 8.7 0.00 0.00 0.00 35 1010.2
20260505201500 77 331 3.5 9.6 0.00 0.00 0.00 35 1010.2
20260505201000 77 32 3.5 9.6 0.00 0.00 0.00 37 1010.2
20260505200500 77 40 3.5 8.7 0.00 0.00 0.00 36 1010.3
20260505200001 76 313 3.5 8.7 0.00 0.00 0.00 36 1010.3
20260505195500 76 322 3.5 8.7 0.00 0.00 0.00 36 1010.3
20260505195244 76 340 3.5 9.6 0.00 0.00 0.00 36 1010.3
20260505194500 76 49 4.3 9.6 0.00 0.00 0.00 37 1010.4
20260505194008 76 350 4.3 10.4 0.00 0.00 0.00 37 1010.3
20260505193736 76 338 4.3 10.4 0.00 0.00 0.00 37 1010.4
20260505193230 75 19 3.5 10.4 0.00 0.00 0.00 38 1010.3
20260505192501 75 336 3.5 10.4 0.00 0.00 0.00 36 1010.5
20260505192244 74 346 3.5 8.7 0.00 0.00 0.00 39 1010.5
20260505191459 75 34 2.6 8.7 0.00 0.00 0.00 38 1010.5
20260505190957 74 338 2.6 8.7 0.00 0.00 0.00 40 1010.6
20260505190450 74 325 3.5 8.7 0.00 0.00 0.00 39 1010.6
20260505185943 74 341 2.6 8.7 0.00 0.00 0.00 40 1010.6
20260505185437 74 30 3.5 8.7 0.00 0.00 0.00 40 1010.6
20260505184932 73 348 2.6 7.8 0.00 0.00 0.00 40 1010.6
20260505184426 72 349 2.6 7.0 0.00 0.00 0.00 42 1010.5
20260505184156 72 306 2.6 7.8 0.00 0.00 0.00 42 1010.6
20260505183413 72 355 2.6 7.8 0.00 0.00 0.00 43 1010.6
20260505182911 72 316 2.6 7.8 0.00 0.00 0.00 41 1010.6
20260505182401 71 309 3.5 7.8 0.00 0.00 0.00 41 1010.7
20260505181855 71 319 3.5 7.8 0.00 0.00 0.00 42 1010.6
20260505181629 71 300 3.5 7.8 0.00 0.00 0.00 42 1010.6
20260505180843 71 332 2.6 7.0 0.00 0.00 0.00 44 1010.6
20260505180337 71 303 2.6 6.1 0.00 0.00 0.00 44 1010.6
20260505175834 70 298 2.6 5.2 0.00 0.00 0.00 44 1010.5
20260505175325 70 66 1.7 5.2 0.00 0.00 0.00 45 1010.6
20260505175049 69 42 1.7 5.2 0.00 0.00 0.00 45 1010.6
20260505174313 69 348 1.7 5.2 0.00 0.00 0.00 45 1010.6
20260505173807 68 347 2.6 7.0 0.00 0.00 0.00 47 1010.6
20260505173301 68 294 2.6 7.0 0.00 0.00 0.00 47 1010.6
20260505172838 68 302 1.7 5.2 0.00 0.00 0.00 46 1010.7
20260505172553 68 317 1.7 5.2 0.00 0.00 0.00 48 1010.7
20260505171238 67 313 2.6 5.2 0.00 0.00 0.00 48 1010.6
20260505170731 67 265 2.6 4.3 0.00 0.00 0.00 48 1010.6
20260505170225 66 282 1.7 3.5 0.00 0.00 0.00 50 1010.6
20260505165722 66 22 0.9 3.5 0.00 0.00 0.00 51 1010.6
20260505165213 66 29 1.7 3.5 0.00 0.00 0.00 52 1010.6
20260505164941 65 91 1.7 4.3 0.00 0.00 0.00 52 1010.5
20260505164202 65 143 0.9 4.3 0.00 0.00 0.00 53 1010.5
20260505163656 64 150 0.9 4.3 0.00 0.00 0.00 54 1010.6
20260505163150 64 132 0.9 4.3 0.00 0.00 0.00 54 1010.7
20260505162946 63 155 1.7 4.3 0.00 0.00 0.00 57 1010.7
20260505162942 64 161 0.9 4.3 0.00 0.00 0.00 56 1010.7
20260505161631 63 188 0.9 4.3 0.00 0.00 0.00 58 1010.7
20260505161128 62 151 0.9 4.3 0.00 0.00 0.00 59 1010.8
20260505160619 62 181 0.9 4.3 0.00 0.00 0.00 60 1010.8
20260505160346 61 182 0.9 4.3 0.00 0.00 0.00 61 1010.9
20260505153038 58 128 0.9 3.5 0.00 0.00 0.00 64 1010.8
20260505152531 58 138 0.9 3.5 0.00 0.00 0.00 66 1010.8
20260505152301 56 185 0.9 2.6 0.00 0.00 0.00 68 1010.7
20260505151522 56 192 0.0 2.6 0.00 0.00 0.00 68 1010.7
20260505151019 55 126 0.0 0.0 0.00 0.00 0.00 69 1010.7
20260505150521 54 125 0.0 0.0 0.00 0.00 0.00 71 1010.7
20260505140521 47 129 0.0 0.0 0.00 0.00 0.00 82 1010.2
20260505140232 47 129 0.0 0.0 0.00 0.00 0.00 83 1010.3
20260505124412 46 129 0.0 1.7 0.00 0.00 0.00 80 1009.3
20260505123908 46 129 0.0 0.0 0.00 0.00 0.00 78 1009.2
20260505123400 46 129 0.0 0.0 0.00 0.00 0.00 77 1009.3
20260505122855 47 129 0.9 2.6 0.00 0.00 0.00 76 1009.3
20260505122348 48 129 1.7 2.6 0.00 0.00 0.00 75 1009.3
20260505121843 49 129 0.9 2.6 0.00 0.00 0.00 75 1009.3
20260505121336 49 201 0.0 0.9 0.00 0.00 0.00 77 1009.4
20260505120830 49 202 0.0 1.7 0.00 0.00 0.00 77 1009.2
20260505120324 49 202 0.0 1.7 0.00 0.00 0.00 77 1009.1
20260505115820 49 202 0.0 0.9 0.00 0.00 0.00 77 1009.1
20260505115313 49 202 0.0 1.7 0.00 0.00 0.00 77 1009.1
20260505114806 49 202 0.0 1.7 0.00 0.00 0.00 76 1009.2
20260505114300 49 202 0.0 0.9 0.00 0.00 0.00 76 1009.1
20260505113754 49 202 0.0 1.7 0.00 0.00 0.00 75 1009.1
20260505113249 49 202 0.0 1.7 0.00 0.00 0.00 74 1009.2
20260505112742 49 202 0.0 0.0 0.00 0.00 0.00 74 1009.2
20260505112236 50 202 0.0 0.0 0.00 0.00 0.00 74 1009.2
20260505111731 50 202 0.0 0.9 0.00 0.00 0.00 74 1009.1
20260505111224 50 202 0.0 0.9 0.00 0.00 0.00 73 1009.0
20260505110721 51 202 0.0 1.7 0.00 0.00 0.00 73 1009.0
20260505110219 51 202 0.9 2.6 0.00 0.00 0.00 72 1008.9
20260505102212 51 191 0.0 0.0 0.00 0.00 0.00 72 1008.7
20260505101713 51 190 0.0 0.0 0.00 0.00 0.00 72 1008.7
20260505101448 52 191 0.0 0.0 0.00 0.00 0.00 72 1008.7
20260505101215 52 191 0.0 0.0 0.00 0.00 0.00 72 1008.7
20260505101009 52 191 0.0 0.0 0.00 0.00 0.00 71 1008.7
20260505100211 52 190 0.0 0.0 0.00 0.00 0.00 71 1008.7
20260505095709 52 190 0.0 0.0 0.00 0.00 0.00 71 1008.7
20260505095209 52 191 0.0 0.0 0.00 0.00 0.00 70 1008.7
20260505094711 53 191 0.0 0.0 0.00 0.00 0.00 70 1008.9
20260505094208 53 190 0.0 0.0 0.00 0.00 0.00 69 1008.7
20260505093943 53 190 0.0 0.0 0.00 0.00 0.00 69 1008.9
20260505093202 53 191 0.0 0.0 0.00 0.00 0.00 69 1008.9
20260505092658 53 190 0.0 0.0 0.00 0.00 0.00 68 1008.9
20260505092201 53 190 0.0 0.0 0.00 0.00 0.00 68 1008.7
20260505091658 53 190 0.0 0.0 0.00 0.00 0.00 68 1008.9
20260505091200 54 190 0.0 0.0 0.00 0.00 0.00 67 1008.9
20260505090658 54 190 0.0 0.0 0.00 0.00 0.00 67 1008.7
20260505090158 54 190 0.0 0.0 0.00 0.00 0.00 67 1008.7
20260505085658 54 190 0.0 0.0 0.00 0.00 0.00 67 1008.7
20260505085200 54 190 0.0 0.0 0.00 0.00 0.00 67 1008.7
20260505084658 54 191 0.0 0.0 0.00 0.00 0.00 67 1008.6
20260505084159 54 190 0.0 0.0 0.00 0.00 0.00 67 1008.7
20260505083655 54 190 0.9 2.6 0.00 0.00 0.00 66 1008.7
20260505083213 55 191 0.9 2.6 0.00 0.00 0.00 66 1008.6
20260505082155 55 187 0.9 2.6 0.00 0.00 0.00 65 1008.5
20260505081655 55 181 0.0 0.0 0.00 0.00 0.00 65 1008.5
20260505081154 55 181 0.0 0.0 0.00 0.00 0.00 65 1008.5
20260505080654 55 181 0.0 0.0 0.00 0.00 0.00 65 1008.6
20260505080154 55 181 0.0 0.0 0.00 0.00 0.00 65 1008.5
20260505075655 55 181 0.0 0.0 0.00 0.00 0.00 65 1008.5
20260505075148 55 181 0.0 0.0 0.00 0.00 0.00 64 1008.6
20260505074643 55 181 0.0 0.0 0.00 0.00 0.00 63 1008.5
20260505074135 56 181 0.0 0.0 0.00 0.00 0.00 63 1008.5
20260505073629 56 181 0.0 0.0 0.00 0.00 0.00 63 1008.5
20260505073406 56 181 0.0 0.0 0.00 0.00 0.00 62 1008.5
20260505072624 56 181 0.0 0.0 0.00 0.00 0.00 62 1008.4
20260505072111 56 181 0.0 0.0 0.00 0.00 0.00 62 1008.5
20260505071606 56 181 0.9 2.6 0.00 0.00 0.00 61 1008.4
20260505071100 57 181 0.9 2.6 0.00 0.00 0.00 61 1008.4
20260505070553 57 181 0.9 2.6 0.00 0.00 0.00 61 1008.3
20260505070046 57 181 0.9 2.6 0.00 0.00 0.00 60 1008.3
20260505065542 57 180 1.7 3.5 0.00 0.00 0.00 60 1008.3
20260505065035 57 177 1.7 3.5 0.00 0.00 0.00 59 1008.3
20260505064811 57 163 0.9 3.5 0.00 0.00 0.00 59 1008.2
20260505064021 57 146 0.9 1.7 0.00 0.00 0.00 58 1008.2
20260505063545 58 146 0.0 1.7 0.00 0.00 0.00 57 1008.3
20260505063531 57 146 0.9 1.7 0.00 0.00 0.00 58 1008.3
20260505062503 58 146 0.0 0.9 0.00 0.00 0.00 55 1008.3
20260505061958 58 146 0.0 1.7 0.00 0.00 0.00 54 1008.3
20260505061453 58 146 0.9 3.5 0.00 0.00 0.00 54 1008.4
20260505060946 58 145 0.9 3.5 0.00 0.00 0.00 56 1008.4
20260505060439 58 263 0.9 2.6 0.00 0.00 0.00 55 1008.3
20260505055933 59 303 0.9 2.6 0.00 0.00 0.00 54 1008.2
20260505055428 59 5 0.0 1.7 0.00 0.00 0.00 53 1008.2
20260505054921 59 5 0.0 0.0 0.00 0.00 0.00 53 1008.2
20260505054645 59 5 0.0 0.9 0.00 0.00 0.00 52 1008.2
20260505053909 59 5 0.0 1.7 0.00 0.00 0.00 50 1008.2
20260505053403 60 5 0.9 1.7 0.00 0.00 0.00 45 1008.2
20260505053144 60 5 0.0 1.7 0.00 0.00 0.00 42 1008.3
20260505052351 61 9 0.0 0.9 0.00 0.00 0.00 41 1008.2
20260505052128 61 9 0.0 0.9 0.00 0.00 0.00 40 1008.3
20260505051340 62 9 0.0 0.9 0.00 0.00 0.00 39 1008.2
20260505050835 62 9 0.0 0.9 0.00 0.00 0.00 37 1008.1
20260505050604 63 9 0.0 1.7 0.00 0.00 0.00 37 1008.1
20260505041231 66 307 0.9 6.1 0.00 0.00 0.00 33 1007.4
20260505040721 65 348 0.9 1.7 0.00 0.00 0.00 34 1007.4
20260505040219 66 348 0.9 1.7 0.00 0.00 0.00 33 1007.2
20260505035709 66 348 0.0 1.7 0.00 0.00 0.00 32 1007.1
20260505035203 67 348 0.9 3.5 0.00 0.00 0.00 32 1007.0
20260505034658 68 348 0.9 3.5 0.00 0.00 0.00 31 1006.9
20260505034151 68 348 0.9 3.5 0.00 0.00 0.00 30 1006.8
20260505033645 69 342 1.7 5.2 0.00 0.00 0.00 30 1006.7
20260505033139 69 355 2.6 7.0 0.00 0.00 0.00 29 1006.6
20260505032637 70 342 2.6 7.8 0.00 0.00 0.00 29 1006.6
20260505032137 70 11 3.5 8.7 0.00 0.00 0.00 28 1006.6
20260505031638 71 355 4.3 8.7 0.00 0.00 0.00 28 1006.6
20260505031137 71 334 5.2 11.3 0.00 0.00 0.00 27 1006.5
20260505030637 71 330 6.1 12.2 0.00 0.00 0.00 27 1006.4
20260505030421 72 341 6.1 12.2 0.00 0.00 0.00 26 1006.2
20260505025640 72 342 6.1 11.3 0.00 0.00 0.00 26 1006.1
20260505025137 73 340 6.1 11.3 0.00 0.00 0.00 26 1006.1
20260505024637 73 300 7.0 13.0 0.00 0.00 0.00 25 1006.1
20260505024138 73 338 7.0 13.0 0.00 0.00 0.00 24 1006.0
20260505023633 74 350 7.0 14.8 0.00 0.00 0.00 24 1005.9
20260505023136 74 317 7.0 14.8 0.00 0.00 0.00 23 1006.0
20260505022927 75 339 6.1 13.0 0.00 0.00 0.00 23 1005.9
20260505022134 75 333 6.1 11.3 0.00 0.00 0.00 22 1005.9
20260505021633 76 10 6.1 13.0 0.00 0.00 0.00 22 1005.8
20260505021422 76 329 7.0 15.6 0.00 0.00 0.00 22 1005.8
20260505020634 76 311 7.0 15.6 0.00 0.00 0.00 22 1005.8
20260505020141 76 336 7.0 13.9 0.00 0.00 0.00 22 1005.8
20260505015919 76 342 7.0 13.9 0.00 0.00 0.00 23 1005.7
20260505015136 77 355 7.8 13.9 0.00 0.00 0.00 23 1005.8
20260505014910 77 329 7.0 13.9 0.00 0.00 0.00 22 1005.7
20260505014131 78 340 7.8 13.0 0.00 0.00 0.00 23 1005.7
20260505013851 78 347 7.8 14.8 0.00 0.00 0.00 23 1005.8
20260505013631 78 347 7.8 14.8 0.00 0.00 0.00 23 1005.8
20260505013407 78 322 6.1 14.8 0.00 0.00 0.00 23 1005.7
20260505012631 79 35 5.2 10.4 0.00 0.00 0.00 24 1005.8
20260505012131 79 334 6.1 14.8 0.00 0.00 0.00 24 1005.7
20260505011631 79 319 7.0 14.8 0.00 0.00 0.00 24 1005.8
20260505011132 79 344 5.2 13.9 0.00 0.00 0.00 24 1005.9
20260505010632 80 337 5.2 13.9 0.00 0.00 0.00 24 1005.8
20260505010131 80 300 6.1 13.9 0.00 0.00 0.00 24 1005.8
20260505005640 80 355 5.2 11.3 0.00 0.00 0.00 25 1005.9
20260505005141 80 355 6.1 13.9 0.00 0.00 0.00 25 1006.0
20260505004639 80 323 7.0 13.9 0.00 0.00 0.00 24 1005.8
20260505004422 80 342 6.1 11.3 0.00 0.00 0.00 24 1005.9
20260505003635 80 333 6.1 11.3 0.00 0.00 0.00 24 1005.9
20260505003129 81 323 7.0 13.9 0.00 0.00 0.00 24 1006.0
20260505002628 81 5 7.0 13.9 0.00 0.00 0.00 25 1005.9
20260505002353 81 13 6.1 15.6 0.00 0.00 0.00 25 1005.9
20260505001845 81 347 6.1 15.6 0.00 0.00 0.00 24 1005.9
20260505001103 82 296 6.1 13.0 0.00 0.00 0.00 24 1005.8
20260505000559 81 18 6.1 12.2 0.00 0.00 0.00 24 1005.9
20260505000053 81 290 7.0 15.6 0.00 0.00 0.00 24 1005.8
20260504235545 81 288 7.0 15.6 0.00 0.00 0.00 24 1005.9
20260504235040 82 273 6.1 13.9 0.00 0.00 0.00 23 1005.8
20260504234532 82 0 6.1 13.0 0.00 0.00 0.00 23 1005.9
20260504234030 82 5 6.1 13.0 0.00 0.00 0.00 23 1005.8
20260504233800 82 315 7.0 13.0 0.00 0.00 0.00 23 1005.8
20260504233015 82 309 6.1 13.0 0.00 0.00 0.00 23 1005.8
20260504232511 82 291 5.2 13.9 0.00 0.00 0.00 24 1005.8
20260504232241 82 314 7.0 13.9 0.00 0.00 0.00 23 1005.9
20260504231501 82 296 7.0 15.6 0.00 0.00 0.00 23 1005.9
20260504230954 82 5 6.1 15.6 0.00 0.00 0.00 23 1005.9
20260504230711 82 325 6.1 14.8 0.00 0.00 0.00 22 1005.9
20260504225942 82 351 6.1 14.8 0.00 0.00 0.00 23 1006.0
20260504225435 82 355 5.2 13.9 0.00 0.00 0.00 22 1006.0
20260504224927 82 30 6.1 11.3 0.00 0.00 0.00 22 1006.2